Location: ??????
(42.0089°N, 44.3281°E)
Time: 20:33:03
(UTC+00:00)

CZ-2C R/B - Pass Details

Date: 31 May 2022
Orbit: 785 x 869 km, 98.2° (Epoch: 25 June)

Event Time Altitude Azimuth Distance (km) Brightness Sun altitude
Rises 00:10:41 0° 120° (ESE) 3,285 6.0 -12.4°
Reaches altitude 10° 00:13:43 10° 101° (ESE) 2,371 5.5 -12.1°
Maximum altitude 00:17:04 18° 61° (ENE) 1,912 5.7 -11.6°
Drops below altitude 10° 00:20:29 10° 21° (NNE) 2,411 6.2 -11.2°
Sets 00:23:35 0° 3° (N) 3,365 6.6 -10.7°
